#timestamp,LO_Frequency,Hit,Temp,Hum 
1478473215.8,286047004.6,N,0.0,0.0
1478473235.6,286047004.6,N,0.0,0.0
1478473255.4,286047009.1,N,0.0,0.0
1478473275.3,286047008.5,N,0.0,0.0
1478473295.1,286047007.9,N,0.0,0.0
1478473315.8,286047010.3,N,0.0,0.0
1478473335.7,286047006.1,N,0.0,0.0
1478473355.5,286047006.8,N,0.0,0.0
1478473375.3,286047006.5,N,0.0,0.0
1478473395.2,286047010.5,N,0.0,0.0
1478473415.0,286047009.8,N,0.0,0.0
1478473415.9,286047009.8,N,0.0,0.0
1478473435.8,286047011.5,N,0.0,0.0
1478473455.6,286047011.4,N,0.0,0.0
1478473475.4,286047011.7,N,0.0,0.0
1478473495.3,286047010.5,N,0.0,0.0
1478473515.1,286047010.3,N,0.0,0.0
1478473535.8,286047010.1,N,0.0,0.0
1478473555.7,286047012.2,N,0.0,0.0
1478473575.5,286047010.9,N,0.0,0.0
1478473595.3,286047011.8,N,0.0,0.0
1478473615.2,286047013.4,N,0.0,0.0
1478473635.0,286047013.3,N,0.0,0.0
1478473635.9,286047013.3,N,0.0,0.0
1478473655.8,286047015.5,N,0.0,0.0
1478473675.6,286047015.0,N,0.0,0.0
1478473695.4,286047020.3,N,0.0,0.0
1478473715.3,286047012.3,N,0.0,0.0
1478473735.1,286047010.2,N,0.0,0.0
1478473736.0,286047010.2,N,0.0,0.0
1478473755.8,286047005.3,N,0.0,0.0
1478473775.7,286047006.6,N,0.0,0.0
1478473795.5,286047010.3,N,0.0,0.0
1478473815.3,286047014.4,N,0.0,0.0
1478473835.2,286047014.8,N,0.0,0.0
1478473855.0,286047015.1,N,0.0,0.0
1478473855.9,286047015.1,N,0.0,0.0
1478473875.8,286047012.6,N,0.0,0.0
1478473895.6,286047014.2,N,0.0,0.0
1478473915.4,286047014.6,N,0.0,0.0
1478473935.3,286047014.1,N,0.0,0.0
1478473955.1,286047016.6,N,0.0,0.0
1478473956.0,286047016.6,N,0.0,0.0
1478473975.8,286047015.2,N,0.0,0.0
1478473995.7,286047015.6,N,0.0,0.0
1478474015.5,286047012.5,N,0.0,0.0
1478474035.3,286047015.6,N,0.0,0.0
1478474055.2,286047015.1,N,0.0,0.0
1478474075.0,286047014.8,N,0.0,0.0
1478474075.9,286047014.8,N,0.0,0.0
1478474095.8,286047013.2,N,0.0,0.0
1478474115.6,286047015.4,N,0.0,0.0
1478474135.4,286047014.1,N,0.0,0.0
1478474155.3,286047015.1,N,0.0,0.0
1478474175.1,286047013.7,N,0.0,0.0
1478474176.0,286047013.7,N,0.0,0.0
1478474195.8,286047011.0,N,0.0,0.0
1478474215.7,286047010.0,N,0.0,0.0
1478474235.5,286047013.6,N,0.0,0.0
1478474255.3,286047014.6,N,0.0,0.0
1478474275.2,286047016.4,N,0.0,0.0
1478474295.0,286047016.1,N,0.0,0.0
1478474295.9,286047016.1,N,0.0,0.0
1478474315.8,286047019.9,N,0.0,0.0
1478474335.6,286047019.2,N,0.0,0.0
1478474355.4,286047017.5,N,0.0,0.0
1478474375.3,286047019.5,N,0.0,0.0
1478474395.1,286047021.4,N,0.0,0.0
1478474396.0,286047021.4,N,0.0,0.0
1478474415.8,286047021.2,N,0.0,0.0
1478474435.7,286047019.6,N,0.0,0.0
1478474455.5,286047017.6,N,0.0,0.0
1478474475.3,286047017.1,N,0.0,0.0
1478474495.2,286047013.0,N,0.0,0.0
1478474515.0,286047014.4,N,0.0,0.0
1478474515.9,286047014.4,N,0.0,0.0
1478474535.8,286047016.9,N,0.0,0.0
1478474555.6,286047010.0,N,0.0,0.0
1478474575.4,286047010.1,N,0.0,0.0
1478474595.3,286047012.1,N,0.0,0.0
1478474615.1,286047012.1,N,0.0,0.0
1478474635.8,286047012.1,N,0.0,0.0
1478474655.7,286047011.3,N,0.0,0.0
1478474675.5,286047011.5,N,0.0,0.0
1478474695.3,286047009.5,N,0.0,0.0
1478474715.2,286047013.0,N,0.0,0.0
1478474735.0,286047013.0,N,0.0,0.0
1478474735.9,286047013.0,N,0.0,0.0
1478474755.8,286047012.8,N,0.0,0.0
1478474775.6,286047014.4,N,0.0,0.0
1478474795.4,286047015.9,N,0.0,0.0
1478474815.3,286047018.7,N,0.0,0.0
1478474835.1,286047017.2,N,0.0,0.0
1478474836.0,286047017.2,N,0.0,0.0
1478474855.8,286047018.3,N,0.0,0.0
1478474875.7,286047012.8,N,0.0,0.0
1478474895.5,286047013.0,N,0.0,0.0
1478474915.3,286047011.7,N,0.0,0.0
1478474935.2,286047011.2,N,0.0,0.0
1478474955.0,286047014.4,N,0.0,0.0
1478474955.9,286047014.4,N,0.0,0.0
1478474975.8,286047017.0,N,0.0,0.0
1478474995.6,286047015.5,N,0.0,0.0
1478475015.4,286047016.7,N,0.0,0.0
1478475035.3,286047016.1,N,0.0,0.0
1478475055.1,286047016.2,N,0.0,0.0
1478475056.0,286047016.2,N,0.0,0.0
1478475075.8,286047014.9,N,0.0,0.0
1478475095.7,286047011.0,N,0.0,0.0
1478475115.5,286047014.7,N,0.0,0.0
1478475135.3,286047016.4,N,0.0,0.0
1478475155.2,286047012.7,N,0.0,0.0
1478475175.0,286047019.0,N,0.0,0.0
1478475175.9,286047019.0,N,0.0,0.0
1478475195.8,286047019.7,N,0.0,0.0
1478475215.6,286047014.6,N,0.0,0.0
1478475235.4,286047020.8,N,0.0,0.0
1478475255.3,286047016.3,N,0.0,0.0
1478475275.1,286047018.7,N,0.0,0.0
1478475295.8,286047016.7,N,0.0,0.0
1478475315.7,286047000.0,N,0.0,0.0
1478475335.5,286047007.5,N,0.0,0.0
1478475355.3,286047007.5,N,0.0,0.0
1478475375.2,286047006.0,N,0.0,0.0
1478475395.0,286047007.5,N,0.0,0.0
1478475395.9,286047007.5,N,0.0,0.0
1478475415.8,286047020.0,N,0.0,0.0
1478475435.6,286047020.2,N,0.0,0.0
1478475455.4,286047020.9,N,0.0,0.0
1478475475.3,286047020.4,N,0.0,0.0
1478475495.1,286047017.6,N,0.0,0.0
1478475496.0,286047017.6,N,0.0,0.0
1478475515.8,286047020.4,N,0.0,0.0
1478475535.7,286047017.4,N,0.0,0.0
1478475555.5,286047018.5,N,0.0,0.0
1478475575.3,286047016.9,N,0.0,0.0
1478475595.2,286047023.0,Y,0.0,0.0
1478475615.0,286047009.2,N,0.0,0.0
1478475615.9,286047009.2,N,0.0,0.0
1478475635.8,286047004.6,N,0.0,0.0
1478475655.6,286047004.9,N,0.0,0.0
1478475675.4,286047007.2,N,0.0,0.0
1478475695.3,286047007.5,N,0.0,0.0
1478475715.1,286047005.1,N,0.0,0.0
1478475735.8,286047008.5,N,0.0,0.0
1478475755.7,286047006.7,N,0.0,0.0
1478475775.5,286047010.2,N,0.0,0.0
1478475795.4,286047009.4,N,0.0,0.0
1478475815.2,286047008.6,N,0.0,0.0
1478475835.0,286047006.6,N,0.0,0.0
1478475835.9,286047006.6,N,0.0,0.0
1478475855.8,286047008.8,N,0.0,0.0
1478475875.6,286047010.2,N,0.0,0.0
1478475895.4,286047008.4,N,0.0,0.0
1478475915.3,286047006.7,N,0.0,0.0
1478475935.1,286047006.6,N,0.0,0.0
1478475955.8,286047007.1,N,0.0,0.0
1478475975.7,286047006.6,N,0.0,0.0
1478475995.5,286047008.2,N,0.0,0.0
1478476015.4,286047006.3,N,0.0,0.0
1478476035.2,286047005.7,N,0.0,0.0
1478476055.0,286047005.1,N,0.0,0.0
1478476055.9,286047005.1,N,0.0,0.0
1478476075.8,286047007.4,N,0.0,0.0
1478476095.6,286047008.5,N,0.0,0.0
1478476115.4,286047006.1,N,0.0,0.0
1478476135.3,286047009.8,N,0.0,0.0
1478476155.1,286047013.5,N,0.0,0.0
1478476175.9,286047012.8,N,0.0,0.0
1478476195.7,286047016.8,N,0.0,0.0
1478476215.5,286047016.2,N,0.0,0.0
1478476235.4,286047018.3,N,0.0,0.0
1478476255.2,286047018.5,N,0.0,0.0
1478476275.0,286047018.4,N,0.0,0.0
1478476275.9,286047018.4,N,0.0,0.0
1478476295.8,286047018.3,N,0.0,0.0
1478476315.6,286047019.0,N,0.0,0.0
1478476335.4,286047017.6,N,0.0,0.0
1478476355.3,286047013.4,N,0.0,0.0
1478476375.1,286047011.0,N,0.0,0.0
1478476395.8,286047016.6,N,0.0,0.0
1478476415.7,286047016.2,N,0.0,0.0
1478476435.5,286047018.1,N,0.0,0.0
1478476455.4,286047014.2,N,0.0,0.0
1478476475.2,286047010.6,N,0.0,0.0
1478476495.0,286047014.8,N,0.0,0.0
1478476495.9,286047014.8,N,0.0,0.0
1478476515.8,286047015.2,N,0.0,0.0
1478476535.6,286047011.0,N,0.0,0.0
1478476555.4,286047015.3,N,0.0,0.0
1478476575.3,286047010.9,N,0.0,0.0
1478476595.1,286047015.9,N,0.0,0.0
1478476615.8,286047018.5,N,0.0,0.0
1478476635.7,286047018.3,N,0.0,0.0
1478476655.5,286047017.9,N,0.0,0.0
1478476675.3,286047018.2,N,0.0,0.0
1478476695.2,286047016.0,N,0.0,0.0
1478476715.0,286047017.1,N,0.0,0.0
1478476715.9,286047017.1,N,0.0,0.0
1478476735.8,286047012.8,N,0.0,0.0
1478476755.6,286047017.9,N,0.0,0.0
1478476775.4,286047014.5,N,0.0,0.0
1478476795.3,286047016.0,N,0.0,0.0
